Orbital Elements
Epoch 2024 Oct. 17.0 TT = JDT 2460600.5
T 2024 Dec. 8.29127 TT Rudenko
q 1.9728212 (2000.0) P Q
n 0.06385067 Peri. 343.79752 -0.12616940 -0.97042458
a 6.1995346 Node 113.07517 +0.93317649 -0.18648900
e 0.6817791 Incl. 12.92690 +0.33654556 +0.15329055
P 15.4
From 66 observations 2024 Oct. 4-Nov. 14, mean residual 0".5.
|